CDT,Max TemperatureF,Mean TemperatureF,Min TemperatureF,Max Dew PointF,MeanDew PointF,Min DewpointF,Max Humidity, Mean Humidity, Min Humidity, Max Sea Level PressureIn, Mean Sea Level PressureIn, Min Sea Level PressureIn, Max VisibilityMiles, Mean VisibilityMiles, Min VisibilityMiles, Max Wind SpeedMPH, Mean Wind SpeedMPH, Max Gust SpeedMPH,PrecipitationIn, CloudCover, Events, WindDirDegrees
2013-8-1,88,75,61,70,65,59,100,75,50,30.12,29.99,29.86,10,8,1,24,8,31,0.21,5,Rain-Thunderstorm,124
2013-8-2,80,70,59,67,64,59,97,80,62,30.03,29.93,29.83,10,10,6,17,5,22,0.03,5,Rain,80
2013-8-3,75,68,60,63,59,55,97,83,68,30.24,30.14,30.05,10,10,8,30,7,37,0.07,6,Rain,82
2013-8-4,78,68,58,68,62,57,97,83,69,30.18,30.09,29.99,10,10,8,13,6,18,0.08,6,,131
2013-8-5,88,78,68,72,69,64,100,77,53,30.02,29.93,29.86,10,7,0,15,6,22,0.42,5,Fog-Rain-Thunderstorm,149
2013-8-6,87,76,64,71,66,60,93,75,56,29.94,29.87,29.81,10,10,7,26,6,38,0.06,4,Rain,50
2013-8-7,82,71,60,65,61,57,90,67,43,30.01,29.97,29.91,10,10,10,10,4,14,0.00,0,,104
2013-8-8,74,67,60,65,64,60,100,84,68,30.05,30.01,29.96,10,10,7,12,2,16,0.03,5,Rain,176
2013-8-9,83,70,56,65,59,55,100,76,51,30.15,30.09,30.06,10,7,1,12,5,15,0.01,3,,111
2013-8-10,86,74,61,63,61,59,100,72,44,30.17,30.11,30.03,10,10,4,18,8,24,0.04,2,,187
2013-8-11,87,76,64,67,63,59,93,72,51,30.06,30.04,29.98,10,9,1,17,7,22,0.41,2,Rain-Thunderstorm,226
2013-8-12,83,71,58,65,61,57,100,76,51,30.09,30.07,30.02,10,6,0,10,3,13,0.00,2,Fog,54
2013-8-13,75,67,58,64,62,57,93,79,64,30.20,30.15,30.09,10,8,2,16,5,20,0.37,5,Rain-Thunderstorm,99
2013-8-14,75,67,59,66,62,57,100,84,68,30.19,30.11,30.00,10,7,2,20,7,24,0.91,7,Rain-Thunderstorm,159
2013-8-15,70,65,59,65,63,59,100,92,84,30.11,30.03,29.99,8,5,1,12,4,15,0.15,6,Rain-Thunderstorm,72
2013-8-16,70,66,61,63,61,60,100,87,73,30.16,30.13,30.09,10,6,2,12,5,15,0.00,7,,121
2013-8-17,76,68,60,65,62,59,100,82,64,30.16,30.12,30.05,10,8,2,18,9,25,0.00,5,,161
2013-8-18,77,68,59,65,62,56,90,77,64,30.09,30.05,30.00,10,10,10,18,9,24,0.00,4,,165
2013-8-19,86,74,61,72,66,60,97,79,61,30.01,29.95,29.88,10,8,2,17,7,21,0.00,0,,173
2013-8-20,89,76,62,71,67,61,100,76,52,29.92,29.88,29.85,10,8,3,17,6,22,0.00,0,,176
2013-8-21,90,77,64,73,68,63,93,74,55,29.99,29.91,29.87,10,10,6,29,7,38,0.20,1,Rain-Thunderstorm,140
2013-8-22,81,73,64,69,66,64,100,81,62,30.07,30.03,29.96,10,9,2,21,7,28,0.77,4,Rain-Thunderstorm,82
2013-8-23,86,78,69,71,69,67,97,77,57,30.05,29.98,29.89,10,8,4,21,10,26,0.00,3,,143
2013-8-24,90,82,73,71,69,67,87,70,52,29.96,29.92,29.89,10,10,10,22,13,30,T,1,,169
2013-8-25,93,83,73,71,68,66,84,63,41,30.01,29.98,29.95,10,10,10,20,12,26,0.00,0,,174
2013-8-26,95,84,72,69,66,63,73,58,42,30.00,29.94,29.86,10,10,10,21,11,26,0.00,0,,182
2013-8-27,95,81,66,71,65,62,79,58,36,29.91,29.89,29.86,10,10,10,16,6,22,0.00,0,,178
2013-8-28,94,78,61,68,63,56,93,62,30,29.98,29.94,29.90,10,10,10,20,6,25,0.00,0,,160
2013-8-29,96,80,63,72,68,61,93,68,42,29.98,29.93,29.87,10,10,6,14,4,21,0.00,0,,147
2013-8-30,92,79,66,73,68,64,100,72,44,29.97,29.92,29.88,10,9,2,26,6,39,0.01,0,,8
2013-8-31,94,77,60,71,65,61,93,66,39,29.93,29.85,29.79,10,10,10,17,4,21,0.01,0,Rain,210